Location: ???????
(55.4362°N, 38.1183°E)
Time: 12:14:46
(UTC+00:00)

USA 267 - Pass Details

Date: 29 October 2021
Orbit: 1101 x 1107 km, 123.0° (Epoch: 25 November)

Event Time Altitude Azimuth Distance (km) Brightness Sun altitude
Exits shadow 16:01:48 - 147° (SSE) 3,297 5.4 -18.4°
Reaches altitude 10° 16:02:46 10° 151° (SSE) 2,954 5.2 -18.5°
Maximum altitude 16:08:53 42° 220° (SW) 1,530 4.3 -19.4°
Drops below altitude 10° 16:15:02 10° 290° (WNW) 2,965 6.6 -20.3°
Sets 16:17:42 0° 298° (WNW) 3,925 7.4 -20.6°
